| time (UTC) | temp F | wind direction | speed MPH | gust MPH | rain 1hr in | rain 24hr in | rain mn in | humidity % | barometer mb |
| 20260506033604 | 47 | 110 | 1.0 | 2.0 | 0.04 | 0.80 | 0.80 | 96 | 1007.9 |
| 20260506033104 | 46 | 98 | 2.0 | 3.0 | 0.05 | 0.80 | 0.80 | 96 | 1007.8 |
| 20260506032604 | 46 | 17 | 0.0 | 1.0 | 0.05 | 0.80 | 0.80 | 96 | 1008.2 |
| 20260506032103 | 46 | 17 | 0.0 | 0.0 | 0.06 | 0.80 | 0.80 | 96 | 1008.2 |
| 20260506031603 | 46 | 17 | 0.0 | 0.0 | 0.05 | 0.79 | 0.79 | 96 | 1008.1 |
| 20260506031104 | 46 | 17 | 0.0 | 2.0 | 0.05 | 0.79 | 0.79 | 96 | 1008.0 |
| 20260506030603 | 47 | 16 | 1.0 | 2.0 | 0.05 | 0.79 | 0.79 | 96 | 1008.0 |
| 20260506030104 | 47 | 316 | 0.0 | 0.0 | 0.04 | 0.78 | 0.78 | 96 | 1008.1 |
| 20260506025603 | 47 | 316 | 0.0 | 0.0 | 0.04 | 0.78 | 0.78 | 96 | 1008.3 |
| 20260506025103 | 47 | 316 | 0.0 | 0.0 | 0.04 | 0.77 | 0.77 | 96 | 1008.4 |
| 20260506024603 | 47 | 316 | 0.0 | 0.0 | 0.04 | 0.77 | 0.77 | 96 | 1008.4 |
| 20260506024103 | 48 | 316 | 0.0 | 0.0 | 0.03 | 0.76 | 0.76 | 96 | 1008.3 |
| 20260506023603 | 48 | 316 | 0.0 | 0.0 | 0.04 | 0.76 | 0.76 | 96 | 1008.3 |
| 20260506023103 | 48 | 316 | 0.0 | 0.0 | 0.03 | 0.75 | 0.75 | 96 | 1008.3 |
| 20260506022604 | 48 | 316 | 0.0 | 0.0 | 0.03 | 0.75 | 0.75 | 96 | 1008.4 |
| 20260506021603 | 48 | 316 | 0.0 | 0.0 | 0.03 | 0.74 | 0.74 | 96 | 1008.4 |
| 20260506021103 | 48 | 316 | 0.0 | 0.0 | 0.03 | 0.74 | 0.74 | 96 | 1008.3 |
| 20260506020603 | 48 | 316 | 0.0 | 0.0 | 0.03 | 0.74 | 0.74 | 96 | 1008.3 |
| 20260506020104 | 48 | 316 | 0.0 | 1.0 | 0.03 | 0.74 | 0.74 | 96 | 1008.5 |
| 20260506015603 | 48 | 311 | 1.0 | 3.0 | 0.03 | 0.74 | 0.74 | 96 | 1008.6 |
| 20260506015103 | 48 | 258 | 0.0 | 1.0 | 0.03 | 0.73 | 0.73 | 96 | 1008.5 |
| 20260506014103 | 48 | 250 | 1.0 | 3.0 | 0.04 | 0.73 | 0.73 | 96 | 1008.6 |
| 20260506013603 | 48 | 245 | 1.0 | 2.0 | 0.04 | 0.72 | 0.72 | 96 | 1008.4 |
| 20260506013103 | 48 | 245 | 0.0 | 2.0 | 0.05 | 0.72 | 0.72 | 96 | 1008.2 |
| 20260506012603 | 48 | 245 | 0.0 | 1.0 | 0.06 | 0.72 | 0.72 | 96 | 1008.2 |
| 20260506012103 | 48 | 245 | 0.0 | 1.0 | 0.07 | 0.72 | 0.72 | 96 | 1008.1 |
| 20260506011603 | 48 | 245 | 0.0 | 2.0 | 0.07 | 0.71 | 0.71 | 96 | 1008.0 |
| 20260506011103 | 48 | 245 | 1.0 | 2.0 | 0.08 | 0.71 | 0.71 | 96 | 1008.1 |
| 20260506010603 | 48 | 245 | 0.0 | 1.0 | 0.09 | 0.71 | 0.71 | 96 | 1008.1 |
| 20260506010103 | 48 | 245 | 0.0 | 2.0 | 0.11 | 0.71 | 0.71 | 96 | 1008.1 |
| 20260506005103 | 48 | 245 | 1.0 | 2.0 | 0.11 | 0.70 | 0.70 | 95 | 1008.2 |
| 20260506004104 | 48 | 252 | 2.0 | 5.0 | 0.12 | 0.69 | 0.69 | 95 | 1008.3 |
| 20260506003104 | 48 | 259 | 0.0 | 2.0 | 0.11 | 0.67 | 0.67 | 95 | 1008.0 |
| 20260506002604 | 48 | 288 | 2.0 | 3.0 | 0.11 | 0.66 | 0.66 | 95 | 1007.9 |
| 20260506002103 | 48 | 299 | 0.0 | 3.0 | 0.11 | 0.65 | 0.65 | 95 | 1007.9 |
| 20260506001604 | 48 | 299 | 0.0 | 2.0 | 0.10 | 0.64 | 0.64 | 95 | 1007.8 |
| 20260506001103 | 48 | 300 | 1.0 | 2.0 | 0.10 | 0.63 | 0.63 | 95 | 1007.7 |
| 20260506000104 | 48 | 312 | 1.0 | 3.0 | 0.08 | 0.60 | 0.60 | 95 | 1007.6 |
| 20260505235603 | 48 | 313 | 1.0 | 3.0 | 0.09 | 0.60 | 0.60 | 95 | 1007.6 |
| 20260505235103 | 48 | 284 | 1.0 | 3.0 | 0.08 | 0.59 | 0.59 | 95 | 1007.4 |
| 20260505234604 | 48 | 298 | 1.0 | 3.0 | 0.08 | 0.58 | 0.58 | 95 | 1007.4 |
| 20260505234104 | 48 | 328 | 1.0 | 3.0 | 0.08 | 0.57 | 0.57 | 95 | 1007.3 |
| 20260505233604 | 48 | 326 | 1.0 | 5.0 | 0.07 | 0.56 | 0.56 | 94 | 1007.1 |
| 20260505233103 | 48 | 321 | 2.0 | 3.0 | 0.08 | 0.56 | 0.56 | 94 | 1007.1 |
| 20260505232603 | 48 | 333 | 2.0 | 3.0 | 0.08 | 0.55 | 0.55 | 94 | 1006.9 |
| 20260505232103 | 48 | 317 | 2.0 | 3.0 | 0.08 | 0.54 | 0.54 | 94 | 1006.9 |
| 20260505231103 | 48 | 327 | 2.0 | 7.0 | 0.10 | 0.53 | 0.53 | 94 | 1007.1 |
| 20260505230604 | 48 | 320 | 3.0 | 9.0 | 0.10 | 0.52 | 0.52 | 94 | 1007.2 |
| 20260505225605 | 48 | 317 | 3.0 | 10.0 | 0.11 | 0.51 | 0.51 | 94 | 1007.3 |
| 20260505225104 | 49 | 297 | 3.0 | 9.0 | 0.13 | 0.51 | 0.51 | 94 | 1007.3 |
| 20260505224604 | 49 | 315 | 3.0 | 12.0 | 0.13 | 0.50 | 0.50 | 94 | 1007.4 |
| 20260505224104 | 49 | 296 | 3.0 | 12.0 | 0.13 | 0.49 | 0.49 | 93 | 1007.4 |
| 20260505223603 | 49 | 353 | 2.0 | 13.0 | 0.15 | 0.49 | 0.49 | 94 | 1007.4 |
| 20260505223103 | 49 | 325 | 4.0 | 8.0 | 0.15 | 0.48 | 0.48 | 93 | 1007.5 |
| 20260505222603 | 49 | 303 | 2.0 | 6.0 | 0.16 | 0.47 | 0.47 | 93 | 1007.7 |
| 20260505222103 | 49 | 294 | 2.0 | 7.0 | 0.16 | 0.46 | 0.46 | 93 | 1007.5 |
| 20260505221604 | 49 | 345 | 3.0 | 6.0 | 0.15 | 0.44 | 0.44 | 93 | 1007.3 |
| 20260505221103 | 49 | 327 | 5.0 | 8.0 | 0.15 | 0.43 | 0.43 | 92 | 1007.2 |
| 20260505215604 | 49 | 332 | 2.0 | 7.0 | 0.16 | 0.40 | 0.40 | 91 | 1007.4 |
| 20260505215104 | 49 | 337 | 5.0 | 10.0 | 0.15 | 0.38 | 0.38 | 91 | 1007.2 |
| 20260505214604 | 49 | 317 | 3.0 | 7.0 | 0.15 | 0.37 | 0.37 | 91 | 1007.3 |
| 20260505214103 | 50 | 336 | 3.0 | 9.0 | 0.15 | 0.36 | 0.36 | 90 | 1007.2 |
| 20260505213604 | 50 | 332 | 3.0 | 7.0 | 0.15 | 0.34 | 0.34 | 89 | 1007.1 |
| 20260505213104 | 50 | 8 | 3.0 | 10.0 | 0.15 | 0.33 | 0.33 | 89 | 1007.0 |
| 20260505212603 | 50 | 357 | 2.0 | 9.0 | 0.13 | 0.31 | 0.31 | 88 | 1006.6 |
| 20260505212104 | 51 | 358 | 4.0 | 8.0 | 0.12 | 0.30 | 0.30 | 87 | 1006.9 |
| 20260505211604 | 51 | 21 | 3.0 | 12.0 | 0.11 | 0.29 | 0.29 | 86 | 1006.8 |
| 20260505211104 | 52 | 338 | 5.0 | 12.0 | 0.10 | 0.28 | 0.28 | 85 | 1006.9 |
| 20260505210603 | 52 | 344 | 6.0 | 12.0 | 0.09 | 0.27 | 0.27 | 84 | 1006.9 |
| 20260505210104 | 53 | 338 | 5.0 | 12.0 | 0.08 | 0.26 | 0.26 | 83 | 1006.4 |
| 20260505205603 | 54 | 344 | 5.0 | 9.0 | 0.06 | 0.24 | 0.24 | 82 | 1006.2 |
| 20260505205103 | 55 | 354 | 5.0 | 12.0 | 0.05 | 0.23 | 0.23 | 81 | 1006.1 |
| 20260505204604 | 56 | 330 | 7.0 | 13.0 | 0.04 | 0.22 | 0.22 | 79 | 1005.8 |
| 20260505204103 | 57 | 0 | 7.0 | 12.0 | 0.03 | 0.21 | 0.21 | 78 | 1005.6 |
| 20260505203603 | 58 | 350 | 5.0 | 13.0 | 0.01 | 0.19 | 0.19 | 78 | 1005.2 |
| 20260505203104 | 59 | 10 | 4.0 | 12.0 | 0.00 | 0.18 | 0.18 | 78 | 1005.1 |
| 20260505202103 | 60 | 338 | 5.0 | 8.0 | 0.00 | 0.18 | 0.18 | 78 | 1004.9 |
| 20260505201603 | 60 | 341 | 6.0 | 9.0 | 0.00 | 0.18 | 0.18 | 77 | 1004.8 |
| 20260505201103 | 61 | 352 | 5.0 | 12.0 | 0.00 | 0.18 | 0.18 | 76 | 1004.9 |
| 20260505200603 | 61 | 351 | 5.0 | 12.0 | 0.00 | 0.18 | 0.18 | 74 | 1004.9 |
| 20260505200103 | 62 | 357 | 6.0 | 13.0 | 0.00 | 0.18 | 0.18 | 74 | 1004.7 |
| 20260505195104 | 62 | 311 | 7.0 | 12.0 | 0.00 | 0.18 | 0.18 | 73 | 1004.2 |
| 20260505194603 | 62 | 348 | 5.0 | 9.0 | 0.00 | 0.18 | 0.18 | 73 | 1004.1 |
| 20260505194103 | 62 | 307 | 5.0 | 9.0 | 0.00 | 0.18 | 0.18 | 73 | 1004.2 |
| 20260505193603 | 62 | 301 | 4.0 | 8.0 | 0.00 | 0.18 | 0.18 | 73 | 1004.2 |
| 20260505193103 | 62 | 341 | 5.0 | 12.0 | 0.00 | 0.18 | 0.18 | 73 | 1004.1 |
| 20260505191604 | 62 | 328 | 7.0 | 12.0 | 0.00 | 0.18 | 0.18 | 72 | 1004.4 |
| 20260505191104 | 63 | 346 | 7.0 | 13.0 | 0.00 | 0.18 | 0.18 | 72 | 1004.4 |
| 20260505190604 | 63 | 332 | 8.0 | 13.0 | 0.00 | 0.18 | 0.18 | 72 | 1004.4 |
| 20260505190104 | 64 | 342 | 7.0 | 13.0 | 0.00 | 0.18 | 0.18 | 72 | 1004.2 |
| 20260505185604 | 64 | 331 | 9.0 | 14.0 | 0.00 | 0.18 | 0.18 | 72 | 1004.1 |
| 20260505185104 | 64 | 342 | 7.0 | 14.0 | 0.00 | 0.18 | 0.18 | 72 | 1003.9 |
| 20260505184103 | 66 | 338 | 6.0 | 12.0 | 0.00 | 0.18 | 0.18 | 70 | 1003.8 |
| 20260505183604 | 66 | 305 | 11.0 | 23.0 | 0.00 | 0.18 | 0.18 | 69 | 1003.8 |
| 20260505183104 | 67 | 338 | 10.0 | 16.0 | 0.00 | 0.18 | 0.18 | 70 | 1003.8 |
| 20260505182103 | 68 | 276 | 9.0 | 20.0 | 0.00 | 0.18 | 0.18 | 68 | 1003.7 |
| 20260505181603 | 67 | 309 | 9.0 | 21.0 | 0.00 | 0.18 | 0.18 | 68 | 1003.5 |
| 20260505180603 | 68 | 302 | 14.0 | 31.0 | 0.00 | 0.18 | 0.18 | 67 | 1003.6 |
| 20260505180105 | 67 | 314 | 12.0 | 25.0 | 0.00 | 0.18 | 0.18 | 68 | 1003.4 |
| 20260505175604 | 67 | 307 | 10.0 | 30.0 | 0.00 | 0.18 | 0.18 | 69 | 1003.4 |
| 20260505175103 | 67 | 305 | 12.0 | 21.0 | 0.00 | 0.18 | 0.18 | 68 | 1003.3 |
| 20260505174604 | 68 | 299 | 16.0 | 26.0 | 0.00 | 0.18 | 0.18 | 68 | 1003.2 |
| 20260505174103 | 68 | 305 | 12.0 | 24.0 | 0.00 | 0.18 | 0.18 | 69 | 1003.2 |
| 20260505173604 | 67 | 284 | 10.0 | 22.0 | 0.00 | 0.18 | 0.18 | 68 | 1003.1 |
| 20260505172603 | 68 | 278 | 7.0 | 18.0 | 0.00 | 0.18 | 0.18 | 68 | 1003.0 |
| 20260505172103 | 68 | 282 | 8.0 | 21.0 | 0.00 | 0.18 | 0.18 | 68 | 1003.0 |
| 20260505171603 | 69 | 292 | 12.0 | 26.0 | 0.00 | 0.18 | 0.18 | 69 | 1002.9 |
| 20260505171104 | 67 | 292 | 10.0 | 21.0 | 0.00 | 0.18 | 0.18 | 70 | 1003.1 |
| 20260505170105 | 67 | 271 | 9.0 | 26.0 | 0.00 | 0.18 | 0.18 | 68 | 1003.0 |
| 20260505165103 | 67 | 302 | 13.0 | 26.0 | 0.01 | 0.18 | 0.18 | 68 | 1003.0 |
| 20260505164606 | 68 | 294 | 14.0 | 26.0 | 0.01 | 0.18 | 0.18 | 67 | 1003.0 |
| 20260505164103 | 68 | 277 | 14.0 | 26.0 | 0.01 | 0.18 | 0.18 | 69 | 1002.9 |
| 20260505163607 | 68 | 276 | 14.0 | 24.0 | 0.01 | 0.18 | 0.18 | 66 | 1002.9 |
| 20260505163104 | 69 | 293 | 8.0 | 23.0 | 0.01 | 0.18 | 0.18 | 69 | 1002.7 |
| 20260505162605 | 68 | 294 | 12.0 | 23.0 | 0.01 | 0.18 | 0.18 | 68 | 1002.6 |
| 20260505162103 | 68 | 276 | 9.0 | 18.0 | 0.01 | 0.18 | 0.18 | 68 | 1002.4 |
| 20260505161603 | 67 | 262 | 11.0 | 23.0 | 0.01 | 0.18 | 0.18 | 68 | 1002.3 |
| 20260505161104 | 67 | 258 | 10.0 | 18.0 | 0.01 | 0.18 | 0.18 | 68 | 1002.5 |
| 20260505160105 | 66 | 279 | 10.0 | 18.0 | 0.01 | 0.18 | 0.18 | 71 | 1002.5 |
| 20260505153105 | 67 | 298 | 15.0 | 31.0 | 0.00 | 0.17 | 0.17 | 68 | 1002.8 |
| 20260505152606 | 68 | 290 | 14.0 | 23.0 | 0.00 | 0.17 | 0.17 | 68 | 1002.4 |
| 20260505152104 | 67 | 302 | 16.0 | 29.0 | 0.00 | 0.17 | 0.17 | 69 | 1002.1 |
| 20260505151605 | 67 | 279 | 11.0 | 25.0 | 0.00 | 0.17 | 0.17 | 71 | 1002.0 |
| 20260505151104 | 66 | 287 | 8.0 | 16.0 | 0.00 | 0.17 | 0.17 | 70 | 1002.0 |
| 20260505150605 | 66 | 275 | 8.0 | 17.0 | 0.00 | 0.17 | 0.17 | 71 | 1001.7 |
| 20260505150104 | 66 | 289 | 12.0 | 20.0 | 0.00 | 0.17 | 0.17 | 69 | 1001.6 |
| 20260505140604 | 64 | 280 | 9.0 | 26.0 | 0.00 | 0.17 | 0.17 | 73 | 1001.7 |
| 20260505140105 | 64 | 291 | 11.0 | 23.0 | 0.00 | 0.17 | 0.17 | 73 | 1001.7 |
| 20260505130104 | 62 | 266 | 8.0 | 16.0 | 0.00 | 0.17 | 0.17 | 76 | 1001.3 |
| 20260505124605 | 62 | 266 | 5.0 | 13.0 | 0.00 | 0.17 | 0.17 | 76 | 1000.8 |
| 20260505124105 | 63 | 281 | 5.0 | 14.0 | 0.00 | 0.17 | 0.17 | 76 | 1000.9 |
| 20260505123604 | 63 | 267 | 8.0 | 15.0 | 0.00 | 0.17 | 0.17 | 75 | 1000.9 |
| 20260505123105 | 63 | 296 | 9.0 | 15.0 | 0.00 | 0.17 | 0.17 | 76 | 1000.8 |
| 20260505122605 | 63 | 281 | 9.0 | 20.0 | 0.00 | 0.17 | 0.17 | 77 | 1000.8 |
| 20260505122104 | 63 | 297 | 5.0 | 16.0 | 0.00 | 0.17 | 0.17 | 77 | 1000.8 |
| 20260505121606 | 63 | 281 | 5.0 | 12.0 | 0.00 | 0.17 | 0.17 | 77 | 1000.7 |
| 20260505121106 | 63 | 292 | 6.0 | 15.0 | 0.00 | 0.17 | 0.17 | 78 | 1000.7 |
| 20260505120604 | 62 | 268 | 6.0 | 12.0 | 0.00 | 0.17 | 0.17 | 78 | 1000.6 |
| 20260505115606 | 62 | 275 | 5.0 | 13.0 | 0.00 | 0.17 | 0.17 | 78 | 1000.6 |
| 20260505115109 | 62 | 275 | 6.0 | 12.0 | 0.00 | 0.17 | 0.17 | 78 | 1000.5 |
| 20260505114604 | 62 | 278 | 4.0 | 10.0 | 0.00 | 0.17 | 0.17 | 79 | 1000.5 |
| 20260505114104 | 62 | 279 | 4.0 | 9.0 | 0.00 | 0.17 | 0.17 | 79 | 1000.4 |
| 20260505113605 | 62 | 290 | 4.0 | 12.0 | 0.00 | 0.17 | 0.17 | 79 | 1000.4 |
| 20260505113111 | 62 | 271 | 4.0 | 12.0 | 0.00 | 0.17 | 0.17 | 80 | 1000.3 |
| 20260505112104 | 61 | 279 | 3.0 | 10.0 | 0.00 | 0.17 | 0.17 | 81 | 1000.2 |
| 20260505111607 | 61 | 266 | 4.0 | 12.0 | 0.00 | 0.17 | 0.17 | 81 | 1000.2 |
| 20260505110104 | 61 | 268 | 5.0 | 9.0 | 0.00 | 0.17 | 0.17 | 82 | 999.9 |
| 20260505102104 | 58 | 254 | 5.0 | 8.0 | 0.00 | 0.17 | 0.17 | 90 | 999.3 |
| 20260505101604 | 57 | 251 | 4.0 | 10.0 | 0.00 | 0.17 | 0.17 | 90 | 999.2 |
| 20260505101105 | 57 | 241 | 3.0 | 13.0 | 0.00 | 0.17 | 0.17 | 91 | 999.1 |
| 20260505100604 | 57 | 248 | 5.0 | 12.0 | 0.00 | 0.17 | 0.17 | 91 | 999.1 |
| 20260505100106 | 57 | 248 | 5.0 | 12.0 | 0.00 | 0.17 | 0.17 | 92 | 999.2 |
| 20260505095605 | 57 | 244 | 3.0 | 9.0 | 0.00 | 0.17 | 0.17 | 92 | 999.2 |
| 20260505095104 | 57 | 241 | 3.0 | 10.0 | 0.00 | 0.17 | 0.17 | 93 | 999.0 |
| 20260505094604 | 56 | 237 | 4.0 | 8.0 | 0.00 | 0.17 | 0.17 | 93 | 999.1 |
| 20260505094106 | 56 | 240 | 3.0 | 12.0 | 0.00 | 0.17 | 0.17 | 94 | 999.0 |
| 20260505092611 | 55 | 284 | 3.0 | 9.0 | 0.00 | 0.17 | 0.17 | 95 | 999.0 |
| 20260505091604 | 55 | 245 | 3.0 | 10.0 | 0.00 | 0.17 | 0.17 | 96 | 998.9 |
| 20260505091104 | 55 | 244 | 5.0 | 9.0 | 0.00 | 0.17 | 0.17 | 95 | 998.8 |
| 20260505090604 | 55 | 245 | 3.0 | 8.0 | 0.00 | 0.17 | 0.17 | 95 | 998.9 |
| 20260505085605 | 55 | 242 | 3.0 | 8.0 | 0.00 | 0.17 | 0.17 | 96 | 999.0 |
| 20260505085104 | 55 | 249 | 2.0 | 3.0 | 0.00 | 0.17 | 0.17 | 96 | 999.1 |
| 20260505084604 | 54 | 246 | 3.0 | 5.0 | 0.00 | 0.17 | 0.17 | 96 | 999.1 |
| 20260505084106 | 54 | 242 | 2.0 | 3.0 | 0.00 | 0.17 | 0.17 | 96 | 999.1 |
| 20260505083604 | 54 | 243 | 1.0 | 3.0 | 0.00 | 0.17 | 0.17 | 96 | 999.2 |
| 20260505083108 | 54 | 208 | 2.0 | 6.0 | 0.00 | 0.17 | 0.17 | 95 | 999.3 |
| 20260505082604 | 54 | 249 | 1.0 | 5.0 | 0.00 | 0.17 | 0.17 | 95 | 999.4 |
| 20260505082106 | 54 | 243 | 2.0 | 7.0 | 0.00 | 0.17 | 0.17 | 95 | 999.4 |
| 20260505081604 | 54 | 247 | 3.0 | 6.0 | 0.00 | 0.17 | 0.17 | 95 | 999.5 |
| 20260505081106 | 54 | 247 | 2.0 | 7.0 | 0.00 | 0.17 | 0.17 | 95 | 999.6 |
| 20260505080604 | 54 | 230 | 3.0 | 5.0 | 0.00 | 0.17 | 0.17 | 95 | 999.5 |
| 20260505080104 | 54 | 238 | 2.0 | 9.0 | 0.00 | 0.17 | 0.17 | 95 | 999.6 |
| 20260505075605 | 54 | 241 | 3.0 | 8.0 | 0.00 | 0.17 | 0.17 | 95 | 999.6 |
| 20260505075104 | 54 | 222 | 3.0 | 5.0 | 0.00 | 0.17 | 0.17 | 94 | 999.6 |
| 20260505074604 | 55 | 241 | 2.0 | 6.0 | 0.00 | 0.17 | 0.17 | 94 | 999.6 |
| 20260505074103 | 55 | 249 | 2.0 | 3.0 | 0.03 | 0.17 | 0.17 | 94 | 999.7 |
| 20260505073604 | 55 | 252 | 2.0 | 6.0 | 0.07 | 0.17 | 0.17 | 94 | 999.6 |
| 20260505073104 | 55 | 242 | 4.0 | 8.0 | 0.12 | 0.17 | 0.17 | 94 | 999.7 |
| 20260505072604 | 55 | 232 | 3.0 | 5.0 | 0.16 | 0.17 | 0.17 | 94 | 999.8 |
| 20260505072104 | 56 | 230 | 3.0 | 8.0 | 0.17 | 0.17 | 0.17 | 93 | 999.8 |
| 20260505071604 | 56 | 231 | 4.0 | 9.0 | 0.17 | 0.17 | 0.17 | 93 | 999.9 |
| 20260505071103 | 56 | 248 | 5.0 | 10.0 | 0.17 | 0.17 | 0.17 | 93 | 999.9 |
| 20260505070605 | 56 | 227 | 3.0 | 8.0 | 0.17 | 0.17 | 0.17 | 93 | 999.8 |
| 20260505070104 | 57 | 245 | 3.0 | 8.0 | 0.17 | 0.17 | 0.17 | 92 | 999.8 |
| 20260505065604 | 57 | 233 | 2.0 | 7.0 | 0.17 | 0.17 | 0.17 | 92 | 999.8 |
| 20260505064604 | 58 | 238 | 3.0 | 9.0 | 0.17 | 0.17 | 0.17 | 91 | 999.9 |
| 20260505064104 | 58 | 238 | 5.0 | 9.0 | 0.14 | 0.14 | 0.14 | 90 | 1000.3 |
| 20260505063604 | 58 | 283 | 7.0 | 21.0 | 0.10 | 0.10 | 0.10 | 89 | 1001.0 |
| 20260505062603 | 58 | 267 | 5.0 | 12.0 | 0.01 | 0.01 | 0.01 | 86 | 1000.6 |
| 20260505062104 | 58 | 272 | 6.0 | 17.0 | 0.00 | 0.00 | 0.00 | 86 | 1000.7 |
| 20260505061604 | 58 | 251 | 7.0 | 18.0 | 0.00 | 0.00 | 0.00 | 85 | 1000.9 |
| 20260505061105 | 59 | 254 | 6.0 | 14.0 | 0.00 | 0.00 | 0.00 | 85 | 1000.8 |
| 20260505060604 | 59 | 262 | 6.0 | 14.0 | 0.00 | 0.00 | 0.00 | 84 | 1000.7 |
| 20260505060104 | 59 | 264 | 7.0 | 16.0 | 0.00 | 0.00 | 0.00 | 82 | 1000.6 |
| 20260505055603 | 60 | 273 | 6.0 | 12.0 | 0.00 | 0.00 | 0.00 | 80 | 1000.6 |
| 20260505055104 | 60 | 270 | 6.0 | 14.0 | 0.00 | 0.00 | 0.00 | 78 | 1000.6 |
| 20260505054104 | 61 | 268 | 6.0 | 20.0 | 0.00 | 0.00 | 0.00 | 75 | 1000.8 |
| 20260505053604 | 61 | 270 | 7.0 | 12.0 | 0.00 | 0.00 | 0.00 | 73 | 1000.9 |
| 20260505053104 | 62 | 287 | 5.0 | 12.0 | 0.00 | 0.00 | 0.00 | 73 | 1000.9 |
| 20260505052604 | 62 | 282 | 5.0 | 12.0 | 0.00 | 0.00 | 0.00 | 72 | 1000.9 |
| 20260505052104 | 62 | 269 | 6.0 | 16.0 | 0.00 | 0.00 | 0.00 | 71 | 1000.9 |
| 20260505051605 | 63 | 275 | 5.0 | 13.0 | 0.00 | 0.00 | 0.00 | 71 | 1000.9 |
| 20260505051104 | 63 | 275 | 8.0 | 18.0 | 0.00 | 0.00 | 0.00 | 70 | 1000.9 |
| 20260505050604 | 63 | 289 | 7.0 | 16.0 | 0.00 | 0.00 | 0.00 | 70 | 1000.9 |
| 20260505050105 | 64 | 270 | 5.0 | 18.0 | 0.00 | 0.00 | 0.00 | 70 | 1000.9 |
| 20260505041604 | 62 | 260 | 6.0 | 16.0 | 0.00 | 0.00 | 0.00 | 72 | 1000.7 |
| 20260505041104 | 62 | 265 | 6.0 | 10.0 | 0.00 | 0.00 | 0.00 | 71 | 1000.7 |
| 20260505040606 | 61 | 249 | 6.0 | 12.0 | 0.00 | 0.00 | 0.00 | 71 | 1000.7 |
| 20260505035603 | 61 | 246 | 5.0 | 12.0 | 0.00 | 0.00 | 0.00 | 71 | 1000.6 |
| 20260505035104 | 61 | 246 | 5.0 | 10.0 | 0.00 | 0.00 | 0.00 | 71 | 1000.5 |
| 20260505034604 | 61 | 238 | 5.0 | 12.0 | 0.00 | 0.00 | 0.00 | 71 | 1000.5 |
| 20260505034104 | 61 | 237 | 4.0 | 9.0 | 0.00 | 0.00 | 0.00 | 71 | 1000.5 |